Location: Newark
(50.4348°N, 30.5552°E)
Time: 11:36:51
(UTC+00:00)

Courier 1B Rocket - Pass Details

Date: 28 January 2020
Orbit: 920 x 1202 km, 28.2° (Epoch: 22 February)

Event Time Altitude Azimuth Distance (km) Brightness Sun altitude
Rises 09:46:55 0° 225° (SW) 3,962 8.7 21.1°
Reaches altitude 10° 09:52:46 10° 189° (S) 2,920 9.3 21.2°
Maximum altitude 09:54:06 11° 178° (S) 2,858 9.8 21.2°
Drops below altitude 10° 09:55:26 10° 167° (SSE) 2,880 9.5 21.2°
Sets 10:00:58 0° 131° (SE) 3,746 8.7 21.3°
